User: anonymous   Login
Location: Utrecht
(52.0830°N, 5.1330°E)
Time: 01:48:55
(UTC+01:00)
Language:

Cosmos 1092 Rocket - Orbit

View from above orbital plane
View from above orbital plane
View from above satellite
View from above satellite

Ground track
Ground track

The orbit data is extracted from the following two-line orbital elements,

1 11327U 79030B   18052.61250800 +.00000001 +00000-0 -14895-4 0  9994
2 11327 082.9485 110.6756 0027353 198.5410 269.8868 13.76967865953255
Epoch (UTC): 21 February 2018 14:42:00
Eccentricity: 0.0027353
inclination: 82.9485°
perigee height: 954 km
apogee height: 995 km
right ascension of ascending node: 110.6756°
argument of perigee: 198.5410°
revolutions per day: 13.76967865
mean anomaly at epoch: 269.8868°
orbit number at epoch: 95325

The dashed part of the orbit path shows where the satellite is in the earth's shadow,  

DLR